This demonstration page uses our WeatherBlox Daily Observations layout. Learn more.

Left ArrowRight Arrow

Hourly Observations for November 24, 2019

Temp ( °F °C ) Dew Point ( °F °C ) Humidity (%) Winds ( mph kmh ) Pressure ( in mb ) Visibility ( mi km ) Precip ( " mm )
12:53 am 00:53 Clear 37 2.8 26 -3.3 65 65 W 9 15 29.90 1013 10 16 0.00 0.00
1:53 am 01:53 Clear 36 2.2 26 -3.3 67 67 WNW 10 17 29.89 1012 10 16 0.00 0.00
2:53 am 02:53 Clear 37 2.8 25 -3.9 62 62 WNW 10 17 29.88 1012 10 16 0.00 0.00
3:53 am 03:53 Clear 35 1.7 25 -3.9 67 67 WNW 12 19 29.88 1012 10 16 0.00 0.00
4:53 am 04:53 Clear 35 1.7 25 -3.9 67 67 W 10 17 29.88 1012 10 16 0.00 0.00
5:53 am 05:53 Clear 35 1.7 24 -4.4 64 64 W 10 17 29.88 1012 10 16 0.00 0.00
6:53 am 06:53 Clear 33 0.6 25 -3.9 72 72 WSW 7 11 29.88 1012 10 16 0.00 0.00
7:53 am 07:53 Sunny 35 1.7 25 -3.9 67 67 W 8 13 29.86 1011 10 16 0.00 0.00
8:53 am 08:53 Sunny 39 3.9 27 -2.8 62 62 WSW 7 11 29.84 1011 10 16 0.00 0.00
9:53 am 09:53 Sunny 45 7.2 28 -2.2 52 52 WSW 12 19 29.83 1010 10 16 0.00 0.00
10:53 am 10:53 Sunny 50 10 31 -0.6 48 48 WSW 7 11 29.81 1010 10 16 0.00 0.00
11:53 am 11:53 Sunny 53 11.7 32 0 45 45 WSW 14 22 29.77 1008 10 16 0.00 0.00
12:53 pm 12:53 Sunny 56 13.3 33 0.6 42 42 WSW 14 22 29.72 1007 10 16 0.00 0.00
1:53 pm 13:53 Sunny 59 15 32 0 36 36 WSW 10 17 29.69 1006 10 16 0.00 0.00
2:53 pm 14:53 Sunny 61 16.1 28 -2.2 29 29 WSW 15 24 29.67 1005 10 16 0.00 0.00
3:53 pm 15:53 Sunny 58 14.4 29 -1.7 33 33 WSW 8 13 29.67 1005 10 16 0.00 0.00
4:53 pm 16:53 Sunny 52 11.1 30 -1.1 43 43 WSW 7 11 29.67 1005 10 16 0.00 0.00
5:53 pm 17:53 Clear 49 9.4 31 -0.6 50 50 WSW 6 9 29.67 1005 10 16 0.00 0.00
6:53 pm 18:53 Clear 45 7.2 31 -0.6 58 58 WSW 6 9 29.67 1005 10 16 0.00 0.00
7:53 pm 19:53 Clear 44 6.7 31 -0.6 60 60 SW 7 11 29.66 1004 10 16 0.00 0.00
8:53 pm 20:53 Clear 44 6.7 30 -1.1 58 58 SW 6 9 29.65 1004 10 16 0.00 0.00
9:53 pm 21:53 Clear 44 6.7 29 -1.7 55 55 WSW 6 9 29.64 1004 10 16 0.00 0.00
10:53 pm 22:53 Clear 42 5.6 29 -1.7 60 60 W 5 7 29.65 1004 10 16 0.00 0.00
11:53 pm 23:53 Clear 42 5.6 28 -2.2 58 58 W 5 7 29.62 1003 10 16 0.00 0.00

Powered by AerisWeather